Weather Roundup
Issued by NWS Springfield, MO

Home | Current Version | Previous Version | Text Only | Print | Product List | Glossary Off
Versions: 1 2 3 4 5 6 7 8 9 10 11 12 13 14 15 16 17 18 19 20 21 22 23 24 25 26 27 28 29 30 31 32 33 34 35 36 37 38 39 40 41 42 43 44 45 46 47 48 49 50

000
NZUS99 KSGF 291107
HRRSGF

HOURLY WEATHER
NATIONAL WEATHER SERVICE SPRINGFIELD MO
600 AM CDT FRI MAY 29 2015

......SGF CWA......

CITY           SKY/WX    TMP DP  RH WIND       PRES   REMARKS
SPRINGFIELD    PTCLDY    66  61  84 S9        30.00R
JOPLIN         CLOUDY    68  64  87 S5        30.00R
WEST PLAINS    CLEAR     65  62  90 SW3       30.04R
ROLLA          MOCLDY    65  63  93 S10       30.00R
OSAGE BEACH    PTCLDY    64  61  88 S7        29.99R
BRANSON        CLEAR     64  61  88 CALM      30.02R

......SURROUNDING SGF CWA......

CITY           SKY/WX    TMP DP  RH WIND       PRES   REMARKS
CHANUTE        LGT RAIN  66  64  93 NE7       29.97S
PARSONS        TSTM      67  67 100 CALM      30.01R FOG
COFFEYVILLE    LGT RAIN  69  67  93 S10       29.96R
EMPORIA        CLOUDY    64  62  93 S8        29.95R
GROVE OK       RAIN      68  68 100 S8        30.00R
ROGERS AR      CLOUDY    66  64  93 CALM      30.02R
SILOAM SPRINGS CLOUDY    66  59  77 S5        30.01S
HARRISON AR    CLEAR     64  61  90 E6        30.02R
NEAR YELLVILLE PTCLDY    64  61  88 CALM      29.99S

......KANSAS AND MISSOURI......

CITY           SKY/WX    TMP DP  RH WIND       PRES   REMARKS
KANSAS CTY INT LGT RAIN  63  63 100 S10       29.95R FOG
DOWNTOWN KC    LGT RAIN  66  62  87 S6        29.95R
COLUMBIA       MOCLDY    65  64  97 S7        29.99R
SEDALIA        MOCLDY    65  63  93 S5        29.98R
ST JOSEPH      CLOUDY    64  63  96 S8        29.91F
ST LOUIS       CLOUDY    72  65  78 S8        30.01R
SPIRIT OF STL  CLOUDY   N/A N/A N/A CALM      29.99R
KIRKSVILLE     CLOUDY    65  65 100 S5        29.96R FOG
WICHITA        CLOUDY    68  66  94 NE5       29.95R
TOPEKA         CLOUDY    67  63  87 S8        29.91F
OLATHE         HVY RAIN  65  65 100 SW7       29.98R FOG

......TENNESSEE......

CITY           SKY/WX    TMP DP  RH WIND       PRES   REMARKS
MEMPHIS        MOCLDY    70  66  88 S5        30.05R
NASHVILLE      MOCLDY    68  66  93 S6        30.14R

......ARKANSAS.......

CITY           SKY/WX    TMP DP  RH WIND       PRES   REMARKS
FAYETTEVILLE   MOCLDY    67  65  93 S7        30.00R
FT SMITH       CLOUDY    69  65  86 NE3       29.99R
LITTLE ROCK    MOCLDY    68  64  87 CALM      30.02R

......OKLAHOMA.......

CITY           SKY/WX    TMP DP  RH WIND       PRES   REMARKS
TULSA          LGT RAIN  69  67  93 S6        29.95R
PONCA CITY     CLOUDY    70  66  87 CALM      29.94R
MCALESTER      LGT RAIN  68  66  93 S3        29.97R FOG
OKLAHOMA CITY  LGT RAIN  65  62  90 S9        29.94R

......IOWA............

CITY           SKY/WX    TMP DP  RH WIND       PRES   REMARKS
DES MOINES     PTCLDY    63  61  93 S7        29.92F
QUAD CITIES    CLOUDY    67  62  84 S6        29.96S

......ILLINOIS........

CITY           SKY/WX    TMP DP  RH WIND       PRES   REMARKS
QUINCY         CLOUDY    68  65  90 S9        29.96S
CHICAGO        CLOUDY    65  60  84 S5        30.01S



USA.gov is the U.S. government's official web portal to all federal, state and local government web resources and services.